Year,Month,Day,Hour,Minute,Value (Times are PST for temperature in C)
2014,09,14,00,00,12.10
2014,09,14,00,01,12.10
2014,09,14,00,02,12.10
2014,09,14,00,03,12.10
2014,09,14,00,04,12.20
2014,09,14,00,05,12.20
2014,09,14,00,06,12.20
2014,09,14,00,07,12.20
2014,09,14,00,08,12.20
2014,09,14,00,09,12.20
2014,09,14,00,10,12.20
2014,09,14,00,11,12.20
2014,09,14,00,12,12.20
2014,09,14,00,13,12.20
2014,09,14,00,14,12.20
2014,09,14,00,15,12.20
2014,09,14,00,16,12.20
2014,09,14,00,17,12.20
2014,09,14,00,18,12.20
2014,09,14,00,19,12.20
2014,09,14,00,20,12.20
2014,09,14,00,21,12.20
2014,09,14,00,22,12.20
2014,09,14,00,23,12.20
2014,09,14,00,24,12.20
2014,09,14,00,25,12.20
2014,09,14,00,26,12.20
2014,09,14,00,27,12.20
2014,09,14,00,28,12.20
2014,09,14,00,29,12.20
2014,09,14,00,30,12.20
2014,09,14,00,31,12.20
2014,09,14,00,32,12.20
2014,09,14,00,33,12.20
2014,09,14,00,34,12.20
2014,09,14,00,35,12.20
2014,09,14,00,36,12.10
2014,09,14,00,37,12.10
2014,09,14,00,38,12.10
2014,09,14,00,39,12.10
2014,09,14,00,40,12.00
2014,09,14,00,41,12.00
2014,09,14,00,42,12.00
2014,09,14,00,43,12.00
2014,09,14,00,44,12.00
2014,09,14,00,45,12.00
2014,09,14,00,46,12.00
2014,09,14,00,47,11.90
2014,09,14,00,48,11.90
2014,09,14,00,49,11.90
2014,09,14,00,50,11.90
2014,09,14,00,51,11.90
2014,09,14,00,52,11.90
2014,09,14,00,53,11.90
2014,09,14,00,54,11.90
2014,09,14,00,55,11.90
2014,09,14,00,56,11.90
2014,09,14,00,57,11.90
2014,09,14,00,58,11.90
2014,09,14,00,59,11.90
2014,09,14,01,00,11.90
2014,09,14,01,01,11.90
2014,09,14,01,02,11.90
2014,09,14,01,03,11.90
2014,09,14,01,04,11.90
2014,09,14,01,05,11.90
2014,09,14,01,06,11.90
2014,09,14,01,07,11.90
2014,09,14,01,08,11.90
2014,09,14,01,09,11.80
2014,09,14,01,10,11.80
2014,09,14,01,11,11.80
2014,09,14,01,12,11.80
2014,09,14,01,13,11.80
2014,09,14,01,14,11.70
2014,09,14,01,15,11.70
2014,09,14,01,16,11.70
2014,09,14,01,17,11.70
2014,09,14,01,18,11.70
2014,09,14,01,19,11.70
2014,09,14,01,20,11.70
2014,09,14,01,21,11.70
2014,09,14,01,22,11.70
2014,09,14,01,23,11.60
2014,09,14,01,24,11.60
2014,09,14,01,25,11.60
2014,09,14,01,26,11.60
2014,09,14,01,27,11.50
2014,09,14,01,28,11.50
2014,09,14,01,29,11.50
2014,09,14,01,30,11.40
2014,09,14,01,31,11.40
2014,09,14,01,32,11.40
2014,09,14,01,33,11.40
2014,09,14,01,34,11.40
2014,09,14,01,35,11.40
2014,09,14,01,36,11.40
2014,09,14,01,37,11.40
2014,09,14,01,38,11.40
2014,09,14,01,39,11.40
2014,09,14,01,40,11.40
2014,09,14,01,41,11.40
2014,09,14,01,42,11.30
2014,09,14,01,43,11.30
2014,09,14,01,44,11.30
2014,09,14,01,45,11.30
2014,09,14,01,46,11.30
2014,09,14,01,47,11.30
2014,09,14,01,48,11.30
2014,09,14,01,49,11.30
2014,09,14,01,50,11.30
2014,09,14,01,51,11.30
2014,09,14,01,52,11.30
2014,09,14,01,53,11.30
2014,09,14,01,54,11.30
2014,09,14,01,55,11.20
2014,09,14,01,56,11.20
2014,09,14,01,57,11.20
2014,09,14,01,58,11.20
2014,09,14,01,59,11.20
2014,09,14,02,00,11.20
2014,09,14,02,01,11.20
2014,09,14,02,02,11.20
2014,09,14,02,03,11.20
2014,09,14,02,04,11.20
2014,09,14,02,05,11.20
2014,09,14,02,06,11.20
2014,09,14,02,07,11.20
2014,09,14,02,08,11.20
2014,09,14,02,09,11.20
2014,09,14,02,10,11.20
2014,09,14,02,11,11.20
2014,09,14,02,12,11.20
2014,09,14,02,13,11.20
2014,09,14,02,14,11.20
2014,09,14,02,15,11.20
2014,09,14,02,16,11.20
2014,09,14,02,17,11.20
2014,09,14,02,18,11.20
2014,09,14,02,19,11.20
2014,09,14,02,20,11.30
2014,09,14,02,21,11.30
2014,09,14,02,22,11.30
2014,09,14,02,23,11.30
2014,09,14,02,24,11.20
2014,09,14,02,25,11.20
2014,09,14,02,26,11.20
2014,09,14,02,27,11.20
2014,09,14,02,28,11.20
2014,09,14,02,29,11.20
2014,09,14,02,30,11.20
2014,09,14,02,31,11.20
2014,09,14,02,32,11.20
2014,09,14,02,33,11.20
2014,09,14,02,34,11.10
2014,09,14,02,35,11.10
2014,09,14,02,36,11.10
2014,09,14,02,37,11.10
2014,09,14,02,38,11.10
2014,09,14,02,39,11.10
2014,09,14,02,40,11.10
2014,09,14,02,41,11.00
2014,09,14,02,42,11.00
2014,09,14,02,43,11.00
2014,09,14,02,44,11.00
2014,09,14,02,45,11.00
2014,09,14,02,46,11.00
2014,09,14,02,47,11.00
2014,09,14,02,48,11.00
2014,09,14,02,49,10.90
2014,09,14,02,50,10.90
2014,09,14,02,51,10.90
2014,09,14,02,52,10.90
2014,09,14,02,53,10.90
2014,09,14,02,54,10.90
2014,09,14,02,55,10.90
2014,09,14,02,56,10.90
2014,09,14,02,57,10.90
2014,09,14,02,58,10.90
2014,09,14,02,59,10.90
2014,09,14,03,00,10.90
2014,09,14,03,01,10.90
2014,09,14,03,02,10.90
2014,09,14,03,03,10.90
2014,09,14,03,04,10.90
2014,09,14,03,05,10.80
2014,09,14,03,06,10.80
2014,09,14,03,07,10.80
2014,09,14,03,08,10.80
2014,09,14,03,09,10.80
2014,09,14,03,10,10.70
2014,09,14,03,11,10.70
2014,09,14,03,12,10.70
2014,09,14,03,13,10.70
2014,09,14,03,14,10.70
2014,09,14,03,15,10.70
2014,09,14,03,16,10.70
2014,09,14,03,17,10.70
2014,09,14,03,18,10.60
2014,09,14,03,19,10.60
2014,09,14,03,20,10.60
2014,09,14,03,21,10.60
2014,09,14,03,22,10.60
2014,09,14,03,23,10.60
2014,09,14,03,24,10.60
2014,09,14,03,25,10.50
2014,09,14,03,26,10.50
2014,09,14,03,27,10.40
2014,09,14,03,28,10.40
2014,09,14,03,29,10.40
2014,09,14,03,30,10.40
2014,09,14,03,31,10.40
2014,09,14,03,32,10.30
2014,09,14,03,33,10.30
2014,09,14,03,34,10.30
2014,09,14,03,35,10.30
2014,09,14,03,36,10.30
2014,09,14,03,37,10.30
2014,09,14,03,38,10.30
2014,09,14,03,39,10.30
2014,09,14,03,40,10.30
2014,09,14,03,41,10.20
2014,09,14,03,42,10.20
2014,09,14,03,43,10.20
2014,09,14,03,44,10.20
2014,09,14,03,45,10.20
2014,09,14,03,46,10.10
2014,09,14,03,47,10.10
2014,09,14,03,48,10.10
2014,09,14,03,49,10.10
2014,09,14,03,50,10.00
2014,09,14,03,51,10.00
2014,09,14,03,52,10.00
2014,09,14,03,53,10.00
2014,09,14,03,54,10.00
2014,09,14,03,55,10.00
2014,09,14,03,56,10.00
2014,09,14,03,57,10.00
2014,09,14,03,58,9.90
2014,09,14,03,59,9.90
2014,09,14,04,00,9.90
2014,09,14,04,01,9.90
2014,09,14,04,02,9.90
2014,09,14,04,03,9.90
2014,09,14,04,04,9.90
2014,09,14,04,05,9.90
2014,09,14,04,06,9.90
2014,09,14,04,07,9.90
2014,09,14,04,08,9.90
2014,09,14,04,09,9.90
2014,09,14,04,10,9.90
2014,09,14,04,11,10.00
2014,09,14,04,12,9.90
2014,09,14,04,13,10.00
2014,09,14,04,14,10.00
2014,09,14,04,15,9.90
2014,09,14,04,16,9.90
2014,09,14,04,17,9.90
2014,09,14,04,18,9.90
2014,09,14,04,19,9.90
2014,09,14,04,20,9.90
2014,09,14,04,21,9.90
2014,09,14,04,22,9.90
2014,09,14,04,23,9.90
2014,09,14,04,24,9.90
2014,09,14,04,25,9.90
2014,09,14,04,26,9.80
2014,09,14,04,27,9.80
2014,09,14,04,28,9.80
2014,09,14,04,29,9.80
2014,09,14,04,30,9.80
2014,09,14,04,31,9.90
2014,09,14,04,32,9.90
2014,09,14,04,33,9.90
2014,09,14,04,34,9.90
2014,09,14,04,35,9.90
2014,09,14,04,36,9.90
2014,09,14,04,37,9.90
2014,09,14,04,38,9.90
2014,09,14,04,39,9.90
2014,09,14,04,40,9.90
2014,09,14,04,41,9.90
2014,09,14,04,42,9.90
2014,09,14,04,43,9.90
2014,09,14,04,44,9.90
2014,09,14,04,45,9.90
2014,09,14,04,46,9.90
2014,09,14,04,47,9.90
2014,09,14,04,48,9.90
2014,09,14,04,49,9.90
2014,09,14,04,50,9.90
2014,09,14,04,51,9.90
2014,09,14,04,52,9.90
2014,09,14,04,53,9.90
2014,09,14,04,54,9.90
2014,09,14,04,55,9.90
2014,09,14,04,56,9.90
2014,09,14,04,57,9.90
2014,09,14,04,58,9.90
2014,09,14,04,59,9.90
2014,09,14,05,00,9.90
2014,09,14,05,01,9.90
2014,09,14,05,02,9.90
2014,09,14,05,03,9.90
2014,09,14,05,04,9.90
2014,09,14,05,05,9.90
2014,09,14,05,06,9.80
2014,09,14,05,07,9.80
2014,09,14,05,08,9.80
2014,09,14,05,09,9.80
2014,09,14,05,10,9.80
2014,09,14,05,11,9.80
2014,09,14,05,12,9.80
2014,09,14,05,13,9.80
2014,09,14,05,14,9.70
2014,09,14,05,15,9.70
2014,09,14,05,16,9.70
2014,09,14,05,17,9.70
2014,09,14,05,18,9.70
2014,09,14,05,19,9.60
2014,09,14,05,20,9.60
2014,09,14,05,21,9.60
2014,09,14,05,22,9.60
2014,09,14,05,23,9.50
2014,09,14,05,24,9.50
2014,09,14,05,25,9.50
2014,09,14,05,26,9.40
2014,09,14,05,27,9.40
2014,09,14,05,28,9.40
2014,09,14,05,29,9.40
2014,09,14,05,30,9.40
2014,09,14,05,31,9.40
2014,09,14,05,32,9.30
2014,09,14,05,33,9.30
2014,09,14,05,34,9.30
2014,09,14,05,35,9.30
2014,09,14,05,36,9.30
2014,09,14,05,37,9.30
2014,09,14,05,38,9.30
2014,09,14,05,39,9.30
2014,09,14,05,40,9.30
2014,09,14,05,41,9.30
2014,09,14,05,42,9.30
2014,09,14,05,43,9.30
2014,09,14,05,44,9.30
2014,09,14,05,45,9.30
2014,09,14,05,46,9.30
2014,09,14,05,47,9.30
2014,09,14,05,48,9.30
2014,09,14,05,49,9.30
2014,09,14,05,50,9.30
2014,09,14,05,51,9.20
2014,09,14,05,52,9.20
2014,09,14,05,53,9.20
2014,09,14,05,54,9.20
2014,09,14,05,55,9.20
2014,09,14,05,56,9.10
2014,09,14,05,57,9.10
2014,09,14,05,58,9.10
2014,09,14,05,59,9.10
2014,09,14,06,00,9.00
2014,09,14,06,01,9.00
2014,09,14,06,02,9.00
2014,09,14,06,03,8.90
2014,09,14,06,04,8.90
2014,09,14,06,05,8.90
2014,09,14,06,06,8.90
2014,09,14,06,07,8.90
2014,09,14,06,08,8.80
2014,09,14,06,09,8.80
2014,09,14,06,10,8.80
2014,09,14,06,11,8.80
2014,09,14,06,12,8.80
2014,09,14,06,13,8.80
2014,09,14,06,14,8.80
2014,09,14,06,15,8.80
2014,09,14,06,16,8.80
2014,09,14,06,17,8.80
2014,09,14,06,18,8.80
2014,09,14,06,19,8.80
2014,09,14,06,20,8.80
2014,09,14,06,21,8.80
2014,09,14,06,22,8.80
2014,09,14,06,23,8.80
2014,09,14,06,24,8.80
2014,09,14,06,25,8.80
2014,09,14,06,26,8.80
2014,09,14,06,27,8.80
2014,09,14,06,28,8.80
2014,09,14,06,29,8.80
2014,09,14,06,30,8.90
2014,09,14,06,31,8.90
2014,09,14,06,32,8.90
2014,09,14,06,33,8.90
2014,09,14,06,34,8.90
2014,09,14,06,35,8.90
2014,09,14,06,36,8.90
2014,09,14,06,37,8.90
2014,09,14,06,38,8.80
2014,09,14,06,39,8.80
2014,09,14,06,40,8.80
2014,09,14,06,41,8.80
2014,09,14,06,42,8.80
2014,09,14,06,43,8.80
2014,09,14,06,44,8.80
2014,09,14,06,45,8.80
2014,09,14,06,46,8.80
2014,09,14,06,47,8.80
2014,09,14,06,48,8.70
2014,09,14,06,49,8.70
2014,09,14,06,50,8.70
2014,09,14,06,51,8.70
2014,09,14,06,52,8.70
2014,09,14,06,53,8.70
2014,09,14,06,54,8.70
2014,09,14,06,55,8.70
2014,09,14,06,56,8.60
2014,09,14,06,57,8.60
2014,09,14,06,58,8.60
2014,09,14,06,59,8.60
2014,09,14,07,00,8.60
2014,09,14,07,01,8.60
2014,09,14,07,02,8.60
2014,09,14,07,03,8.60
2014,09,14,07,04,8.60
2014,09,14,07,05,8.60
2014,09,14,07,06,8.60
2014,09,14,07,07,8.60
2014,09,14,07,08,8.60
2014,09,14,07,09,8.60
2014,09,14,07,10,8.60
2014,09,14,07,11,8.60
2014,09,14,07,12,8.60
2014,09,14,07,13,8.60
2014,09,14,07,14,8.60
2014,09,14,07,15,8.60
2014,09,14,07,16,8.70
2014,09,14,07,17,8.70
2014,09,14,07,18,8.70
2014,09,14,07,19,8.80
2014,09,14,07,20,8.80
2014,09,14,07,21,8.80
2014,09,14,07,22,8.90
2014,09,14,07,23,8.90
2014,09,14,07,24,9.00
2014,09,14,07,25,9.00
2014,09,14,07,26,9.10
2014,09,14,07,27,9.10
2014,09,14,07,28,9.20
2014,09,14,07,29,9.20
2014,09,14,07,30,9.20
2014,09,14,07,31,9.30
2014,09,14,07,32,9.30
2014,09,14,07,33,9.30
2014,09,14,07,34,9.40
2014,09,14,07,35,9.40
2014,09,14,07,36,9.40
2014,09,14,07,37,9.50
2014,09,14,07,38,9.50
2014,09,14,07,39,9.60
2014,09,14,07,40,9.60
2014,09,14,07,41,9.60
2014,09,14,07,42,9.70
2014,09,14,07,43,9.70
2014,09,14,07,44,9.70
2014,09,14,07,45,9.70
2014,09,14,07,46,9.80
2014,09,14,07,47,9.80
2014,09,14,07,48,9.80
2014,09,14,07,49,9.90
2014,09,14,07,50,10.00
2014,09,14,07,51,10.00
2014,09,14,07,52,10.10
2014,09,14,07,53,10.20
2014,09,14,07,54,10.30
2014,09,14,07,55,10.30
2014,09,14,07,56,10.40
2014,09,14,07,57,10.50
2014,09,14,07,58,10.60
2014,09,14,07,59,10.70
2014,09,14,08,00,10.80
2014,09,14,08,01,10.90
2014,09,14,08,02,11.00
2014,09,14,08,03,11.10
2014,09,14,08,04,11.10
2014,09,14,08,05,11.20
2014,09,14,08,06,11.30
2014,09,14,08,07,11.30
2014,09,14,08,08,11.40
2014,09,14,08,09,11.50
2014,09,14,08,10,11.50
2014,09,14,08,11,11.60
2014,09,14,08,12,11.60
2014,09,14,08,13,11.70
2014,09,14,08,14,11.80
2014,09,14,08,15,11.80
2014,09,14,08,16,11.90
2014,09,14,08,17,12.00
2014,09,14,08,18,12.10
2014,09,14,08,19,12.10
2014,09,14,08,20,12.20
2014,09,14,08,21,12.30
2014,09,14,08,22,12.40
2014,09,14,08,23,12.50
2014,09,14,08,24,12.60
2014,09,14,08,25,12.70
2014,09,14,08,26,12.80
2014,09,14,08,27,12.90
2014,09,14,08,28,13.00
2014,09,14,08,29,13.20
2014,09,14,08,30,13.30
2014,09,14,08,31,13.40
2014,09,14,08,32,13.40
2014,09,14,08,33,13.60
2014,09,14,08,34,13.70
2014,09,14,08,35,13.80
2014,09,14,08,36,13.90
2014,09,14,08,37,14.10
2014,09,14,08,38,14.20
2014,09,14,08,39,14.30
2014,09,14,08,40,14.50
2014,09,14,08,41,14.60
2014,09,14,08,42,14.80
2014,09,14,08,43,15.00
2014,09,14,08,44,15.10
2014,09,14,08,45,15.30
2014,09,14,08,46,15.50
2014,09,14,08,47,15.70
2014,09,14,08,48,15.80
2014,09,14,08,49,16.00
2014,09,14,08,50,16.10
2014,09,14,08,51,16.30
2014,09,14,08,52,16.40
2014,09,14,08,53,16.60
2014,09,14,08,54,16.80
2014,09,14,08,55,16.90
2014,09,14,08,56,17.10
2014,09,14,08,57,17.30
2014,09,14,08,58,17.40
2014,09,14,08,59,17.60
2014,09,14,09,00,17.80
2014,09,14,09,01,17.90
2014,09,14,09,02,18.00
2014,09,14,09,03,18.10
2014,09,14,09,04,18.20
2014,09,14,09,05,18.30
2014,09,14,09,06,18.40
2014,09,14,09,07,18.40
2014,09,14,09,08,18.50
2014,09,14,09,09,18.60
2014,09,14,09,10,18.70
2014,09,14,09,11,18.80
2014,09,14,09,12,18.80
2014,09,14,09,13,18.80
2014,09,14,09,14,18.90
2014,09,14,09,15,18.90
2014,09,14,09,16,19.00
2014,09,14,09,17,19.00
2014,09,14,09,18,19.10
2014,09,14,09,19,19.10
2014,09,14,09,20,19.20
2014,09,14,09,21,19.20
2014,09,14,09,22,19.20
2014,09,14,09,23,19.20
2014,09,14,09,24,19.20
2014,09,14,09,25,19.30
2014,09,14,09,26,19.30
2014,09,14,09,27,19.30
2014,09,14,09,28,19.30
2014,09,14,09,29,19.40
2014,09,14,09,30,19.40
2014,09,14,09,31,19.40
2014,09,14,09,32,19.40
2014,09,14,09,33,19.50
2014,09,14,09,34,19.60
2014,09,14,09,35,19.60
2014,09,14,09,36,19.60
2014,09,14,09,37,19.60
2014,09,14,09,38,19.70
2014,09,14,09,39,19.70
2014,09,14,09,40,19.70
2014,09,14,09,41,19.70
2014,09,14,09,42,19.80
2014,09,14,09,43,19.80
2014,09,14,09,44,19.80
2014,09,14,09,45,19.90
2014,09,14,09,46,19.90
2014,09,14,09,47,20.00
2014,09,14,09,48,20.10
2014,09,14,09,49,20.10
2014,09,14,09,50,20.20
2014,09,14,09,51,20.20
2014,09,14,09,52,20.20
2014,09,14,09,53,20.30
2014,09,14,09,54,20.30
2014,09,14,09,55,20.30
2014,09,14,09,56,20.40
2014,09,14,09,57,20.40
2014,09,14,09,58,20.50
2014,09,14,09,59,20.50
2014,09,14,10,00,20.50
2014,09,14,10,01,20.60
2014,09,14,10,02,20.60
2014,09,14,10,03,20.60
2014,09,14,10,04,20.60
2014,09,14,10,05,20.60
2014,09,14,10,06,20.60
2014,09,14,10,07,20.70
2014,09,14,10,08,20.70
2014,09,14,10,09,20.70
2014,09,14,10,10,20.70
2014,09,14,10,11,20.70
2014,09,14,10,12,20.70
2014,09,14,10,13,20.70
2014,09,14,10,14,20.70
2014,09,14,10,15,20.80
2014,09,14,10,16,20.90
2014,09,14,10,17,20.90
2014,09,14,10,18,21.00
2014,09,14,10,19,21.00
2014,09,14,10,20,21.00
2014,09,14,10,21,21.00
2014,09,14,10,22,21.00
2014,09,14,10,23,21.10
2014,09,14,10,24,21.10
2014,09,14,10,25,21.10
2014,09,14,10,26,21.10
2014,09,14,10,27,21.10
2014,09,14,10,28,21.20
2014,09,14,10,29,21.20
2014,09,14,10,30,21.30
2014,09,14,10,31,21.30
2014,09,14,10,32,21.20
2014,09,14,10,33,21.20
2014,09,14,10,34,21.10
2014,09,14,10,35,21.10
2014,09,14,10,36,21.10
2014,09,14,10,37,21.10
2014,09,14,10,38,21.10
2014,09,14,10,39,21.10
2014,09,14,10,40,21.20
2014,09,14,10,41,21.20
2014,09,14,10,42,21.20
2014,09,14,10,43,21.20
2014,09,14,10,44,21.20
2014,09,14,10,45,21.30
2014,09,14,10,46,21.30
2014,09,14,10,47,21.40
2014,09,14,10,48,21.50
2014,09,14,10,49,21.50
2014,09,14,10,50,21.60
2014,09,14,10,51,21.60
2014,09,14,10,52,21.70
2014,09,14,10,53,21.70
2014,09,14,10,54,21.70
2014,09,14,10,55,21.70
2014,09,14,10,56,21.80
2014,09,14,10,57,21.80
2014,09,14,10,58,21.90
2014,09,14,10,59,22.00
2014,09,14,11,00,22.10
2014,09,14,11,01,22.10
2014,09,14,11,02,22.20
2014,09,14,11,03,22.30
2014,09,14,11,04,22.30
2014,09,14,11,05,22.30
2014,09,14,11,06,22.30
2014,09,14,11,07,22.20
2014,09,14,11,08,22.10
2014,09,14,11,09,21.90
2014,09,14,11,10,21.90
2014,09,14,11,11,21.90
2014,09,14,11,12,22.00
2014,09,14,11,13,22.00
2014,09,14,11,14,22.10
2014,09,14,11,15,22.20
2014,09,14,11,16,22.20
2014,09,14,11,17,22.30
2014,09,14,11,18,22.20
2014,09,14,11,19,22.20
2014,09,14,11,20,22.20
2014,09,14,11,21,22.10
2014,09,14,11,22,22.10
2014,09,14,11,23,22.10
2014,09,14,11,24,22.10
2014,09,14,11,25,22.10
2014,09,14,11,26,22.00
2014,09,14,11,27,21.90
2014,09,14,11,28,22.00
2014,09,14,11,29,22.00
2014,09,14,11,30,22.00
2014,09,14,11,31,22.10
2014,09,14,11,32,22.10
2014,09,14,11,33,22.20
2014,09,14,11,34,22.30
2014,09,14,11,35,22.40
2014,09,14,11,36,22.50
2014,09,14,11,37,22.60
2014,09,14,11,38,22.70
2014,09,14,11,39,22.70
2014,09,14,11,40,22.70
2014,09,14,11,41,22.70
2014,09,14,11,42,22.70
2014,09,14,11,43,22.70
2014,09,14,11,44,22.70
2014,09,14,11,45,22.70
2014,09,14,11,46,22.70
2014,09,14,11,47,22.70
2014,09,14,11,48,22.70
2014,09,14,11,49,22.80
2014,09,14,11,50,22.90
2014,09,14,11,51,22.90
2014,09,14,11,52,22.90
2014,09,14,11,53,22.90
2014,09,14,11,54,22.90
2014,09,14,11,55,22.90
2014,09,14,11,56,22.80
2014,09,14,11,57,22.80
2014,09,14,11,58,22.80
2014,09,14,11,59,22.80
2014,09,14,12,00,22.90
2014,09,14,12,01,22.90
2014,09,14,12,02,22.90
2014,09,14,12,03,22.90
2014,09,14,12,04,23.00
2014,09,14,12,05,23.10
2014,09,14,12,06,23.10
2014,09,14,12,07,23.20
2014,09,14,12,08,23.20
2014,09,14,12,09,23.20
2014,09,14,12,10,23.20
2014,09,14,12,11,23.20
2014,09,14,12,12,23.30
2014,09,14,12,13,23.30
2014,09,14,12,14,23.40
2014,09,14,12,15,23.40
2014,09,14,12,16,23.40
2014,09,14,12,17,23.40
2014,09,14,12,18,23.30
2014,09,14,12,19,23.20
2014,09,14,12,20,23.20
2014,09,14,12,21,23.20
2014,09,14,12,22,23.20
2014,09,14,12,23,23.30
2014,09,14,12,24,23.30
2014,09,14,12,25,23.30
2014,09,14,12,26,23.30
2014,09,14,12,27,23.30
2014,09,14,12,28,23.40
2014,09,14,12,29,23.40
2014,09,14,12,30,23.40
2014,09,14,12,31,23.40
2014,09,14,12,32,23.50
2014,09,14,12,33,23.60
2014,09,14,12,34,23.60
2014,09,14,12,35,23.60
2014,09,14,12,36,23.70
2014,09,14,12,37,23.70
2014,09,14,12,38,23.70
2014,09,14,12,39,23.80
2014,09,14,12,40,23.80
2014,09,14,12,41,23.90
2014,09,14,12,42,23.90
2014,09,14,12,43,23.90
2014,09,14,12,44,23.90
2014,09,14,12,45,23.80
2014,09,14,12,46,23.70
2014,09,14,12,47,23.70
2014,09,14,12,48,23.70
2014,09,14,12,49,23.70
2014,09,14,12,50,23.70
2014,09,14,12,51,23.70
2014,09,14,12,52,23.70
2014,09,14,12,53,23.70
2014,09,14,12,54,23.70
2014,09,14,12,55,23.70
2014,09,14,12,56,23.70
2014,09,14,12,57,23.70
2014,09,14,12,58,23.70
2014,09,14,12,59,23.70
2014,09,14,13,00,23.70
2014,09,14,13,01,23.80
2014,09,14,13,02,23.80
2014,09,14,13,03,23.80
2014,09,14,13,04,23.80
2014,09,14,13,05,23.70
2014,09,14,13,06,23.70
2014,09,14,13,07,23.70
2014,09,14,13,08,23.70
2014,09,14,13,09,23.70
2014,09,14,13,10,23.80
2014,09,14,13,11,23.80
2014,09,14,13,12,23.80
2014,09,14,13,13,23.90
2014,09,14,13,14,23.90
2014,09,14,13,15,23.90
2014,09,14,13,16,23.90
2014,09,14,13,17,23.80
2014,09,14,13,18,23.80
2014,09,14,13,19,23.90
2014,09,14,13,20,23.90
2014,09,14,13,21,23.90
2014,09,14,13,22,24.00
2014,09,14,13,23,24.10
2014,09,14,13,24,24.20
2014,09,14,13,25,24.30
2014,09,14,13,26,24.40
2014,09,14,13,27,24.50
2014,09,14,13,28,24.60
2014,09,14,13,29,24.60
2014,09,14,13,30,24.60
2014,09,14,13,31,24.50
2014,09,14,13,32,24.50
2014,09,14,13,33,24.40
2014,09,14,13,34,24.40
2014,09,14,13,35,24.30
2014,09,14,13,36,24.30
2014,09,14,13,37,24.40
2014,09,14,13,38,24.40
2014,09,14,13,39,24.40
2014,09,14,13,40,24.40
2014,09,14,13,41,24.40
2014,09,14,13,42,24.40
2014,09,14,13,43,24.40
2014,09,14,13,44,24.40
2014,09,14,13,45,24.40
2014,09,14,13,46,24.50
2014,09,14,13,47,24.50
2014,09,14,13,48,24.40
2014,09,14,13,49,24.40
2014,09,14,13,50,24.40
2014,09,14,13,51,24.50
2014,09,14,13,52,24.60
2014,09,14,13,53,24.60
2014,09,14,13,54,24.70
2014,09,14,13,55,24.80
2014,09,14,13,56,24.90
2014,09,14,13,57,25.00
2014,09,14,13,58,25.00
2014,09,14,13,59,25.10
2014,09,14,14,00,25.20
2014,09,14,14,01,25.20
2014,09,14,14,02,25.20
2014,09,14,14,03,25.10
2014,09,14,14,04,25.10
2014,09,14,14,05,25.00
2014,09,14,14,06,24.90
2014,09,14,14,07,24.90
2014,09,14,14,08,24.80
2014,09,14,14,09,24.80
2014,09,14,14,10,24.70
2014,09,14,14,11,24.70
2014,09,14,14,12,24.70
2014,09,14,14,13,24.70
2014,09,14,14,14,24.80
2014,09,14,14,15,24.90
2014,09,14,14,16,25.00
2014,09,14,14,17,25.00
2014,09,14,14,18,25.10
2014,09,14,14,19,25.10
2014,09,14,14,20,25.10
2014,09,14,14,21,25.10
2014,09,14,14,22,25.20
2014,09,14,14,23,25.20
2014,09,14,14,24,25.30
2014,09,14,14,25,25.40
2014,09,14,14,26,25.40
2014,09,14,14,27,25.40
2014,09,14,14,28,25.40
2014,09,14,14,29,25.50
2014,09,14,14,30,25.50
2014,09,14,14,31,25.50
2014,09,14,14,32,25.50
2014,09,14,14,33,25.50
2014,09,14,14,34,25.40
2014,09,14,14,35,25.40
2014,09,14,14,36,25.40
2014,09,14,14,37,25.40
2014,09,14,14,38,25.30
2014,09,14,14,39,25.30
2014,09,14,14,40,25.30
2014,09,14,14,41,25.40
2014,09,14,14,42,25.40
2014,09,14,14,43,25.50
2014,09,14,14,44,25.50
2014,09,14,14,45,25.60
2014,09,14,14,46,25.70
2014,09,14,14,47,25.80
2014,09,14,14,48,25.70
2014,09,14,14,49,25.70
2014,09,14,14,50,25.60
2014,09,14,14,51,25.60
2014,09,14,14,52,25.60
2014,09,14,14,53,25.60
2014,09,14,14,54,25.60
2014,09,14,14,55,25.70
2014,09,14,14,56,25.70
2014,09,14,14,57,25.80
2014,09,14,14,58,25.80
2014,09,14,14,59,25.90
2014,09,14,15,00,25.90
2014,09,14,15,01,26.00
2014,09,14,15,02,26.00
2014,09,14,15,03,26.10
2014,09,14,15,04,26.10
2014,09,14,15,05,26.10
2014,09,14,15,06,26.10
2014,09,14,15,07,26.10
2014,09,14,15,08,26.10
2014,09,14,15,09,26.10
2014,09,14,15,10,26.00
2014,09,14,15,11,26.00
2014,09,14,15,12,26.00
2014,09,14,15,13,25.90
2014,09,14,15,14,26.00
2014,09,14,15,15,26.00
2014,09,14,15,16,26.00
2014,09,14,15,17,26.10
2014,09,14,15,18,26.10
2014,09,14,15,19,26.00
2014,09,14,15,20,26.00
2014,09,14,15,21,25.90
2014,09,14,15,22,25.90
2014,09,14,15,23,25.80
2014,09,14,15,24,25.80
2014,09,14,15,25,25.80
2014,09,14,15,26,25.80
2014,09,14,15,27,25.80
2014,09,14,15,28,25.80
2014,09,14,15,29,25.90
2014,09,14,15,30,25.90
2014,09,14,15,31,25.90
2014,09,14,15,32,25.90
2014,09,14,15,33,26.00
2014,09,14,15,34,26.10
2014,09,14,15,35,26.10
2014,09,14,15,36,26.20
2014,09,14,15,37,26.20
2014,09,14,15,38,26.10
2014,09,14,15,39,26.00
2014,09,14,15,40,26.00
2014,09,14,15,41,26.00
2014,09,14,15,42,26.00
2014,09,14,15,43,26.00
2014,09,14,15,44,26.00
2014,09,14,15,45,26.00
2014,09,14,15,46,26.00
2014,09,14,15,47,25.90
2014,09,14,15,48,25.90
2014,09,14,15,49,25.90
2014,09,14,15,50,25.90
2014,09,14,15,51,25.80
2014,09,14,15,52,25.80
2014,09,14,15,53,25.70
2014,09,14,15,54,25.70
2014,09,14,15,55,25.70
2014,09,14,15,56,25.70
2014,09,14,15,57,25.70
2014,09,14,15,58,25.70
2014,09,14,15,59,25.70
2014,09,14,16,00,25.80
2014,09,14,16,01,25.80
2014,09,14,16,02,25.80
2014,09,14,16,03,25.90
2014,09,14,16,04,25.90
2014,09,14,16,05,26.00
2014,09,14,16,06,26.00
2014,09,14,16,07,26.10
2014,09,14,16,08,26.10
2014,09,14,16,09,26.10
2014,09,14,16,10,26.00
2014,09,14,16,11,25.90
2014,09,14,16,12,25.70
2014,09,14,16,13,25.70
2014,09,14,16,14,25.70
2014,09,14,16,15,25.70
2014,09,14,16,16,25.60
2014,09,14,16,17,25.40
2014,09,14,16,18,25.20
2014,09,14,16,19,25.00
2014,09,14,16,20,24.80
2014,09,14,16,21,24.50
2014,09,14,16,22,24.20
2014,09,14,16,23,23.80
2014,09,14,16,24,23.50
2014,09,14,16,25,23.30
2014,09,14,16,26,23.10
2014,09,14,16,27,22.90
2014,09,14,16,28,22.70
2014,09,14,16,29,22.60
2014,09,14,16,30,22.40
2014,09,14,16,31,22.30
2014,09,14,16,32,22.20
2014,09,14,16,33,22.10
2014,09,14,16,34,22.00
2014,09,14,16,35,22.00
2014,09,14,16,36,21.90
2014,09,14,16,37,21.90
2014,09,14,16,38,21.90
2014,09,14,16,39,21.90
2014,09,14,16,40,21.90
2014,09,14,16,41,21.80
2014,09,14,16,42,21.80
2014,09,14,16,43,21.70
2014,09,14,16,44,21.60
2014,09,14,16,45,21.50
2014,09,14,16,46,21.50
2014,09,14,16,47,21.50
2014,09,14,16,48,21.40
2014,09,14,16,49,21.50
2014,09,14,16,50,21.50
2014,09,14,16,51,21.60
2014,09,14,16,52,21.60
2014,09,14,16,53,21.60
2014,09,14,16,54,21.60
2014,09,14,16,55,21.70
2014,09,14,16,56,21.70
2014,09,14,16,57,21.70
2014,09,14,16,58,21.60
2014,09,14,16,59,21.60
2014,09,14,17,00,21.70
2014,09,14,17,01,21.70
2014,09,14,17,02,21.80
2014,09,14,17,03,21.80
2014,09,14,17,04,21.80
2014,09,14,17,05,21.80
2014,09,14,17,06,21.90
2014,09,14,17,07,21.90
2014,09,14,17,08,21.90
2014,09,14,17,09,22.00
2014,09,14,17,10,22.00
2014,09,14,17,11,22.00
2014,09,14,17,12,22.10
2014,09,14,17,13,22.20
2014,09,14,17,14,22.20
2014,09,14,17,15,22.20
2014,09,14,17,16,22.20
2014,09,14,17,17,22.20
2014,09,14,17,18,22.10
2014,09,14,17,19,22.10
2014,09,14,17,20,22.10
2014,09,14,17,21,22.00
2014,09,14,17,22,22.00
2014,09,14,17,23,21.90
2014,09,14,17,24,21.90
2014,09,14,17,25,21.90
2014,09,14,17,26,21.90
2014,09,14,17,27,21.90
2014,09,14,17,28,21.90
2014,09,14,17,29,21.90